Tracking 21094 objects as of 12-Aug-2020
HD Live streaming from Space Station
objects crossing your sky now
Track the most recent launched group of Starlink satellites

SL-12 R/B(2)

Track SL-12 R/B(2) now!


NORAD ID: 26090
Int'l Code: 2000-011B
Perigee: 6,411.9 km
Apogee: 35,781.9 km
Inclination: 16.5 °
Period: 755.1 minutes
Semi major axis: 27467 km
RCS: 23.8279 m2 (large)
Launch date: February 12, 2000
Source: Commonwealth of Independent States (former USSR) (CIS)
Launch site: TYURATAM MISSILE AND SPACE COMPLEX (TTMTR)

Note: This is a ROCKET BODY
aabbcc
Your satellite tracking list
Your tracking list is empty




NASA's NSSDC Master Catalog

Two Line Element Set (TLE):
1 26090U 00011B   20223.88938375 -.00000204 +00000-0 +00000-0 0  9996
2 26090 016.5436 116.7114 5346243 216.3964 085.7099 01.90706301142746
Source of the keplerian elements: AFSPC